owner,sensor,date,latitude,longitude,vertical_datum,wind_speed,wind_to_direction,wind_speed_of_gust,qcFlag 
TABS,ioos:station:wmo:42047:1,2013-11-01T00:00:00Z,27.8966,-93.5973,4.0,10.64107607,18.34956063,12.67,'11111222,11111222,11111222' 
TABS,ioos:station:wmo:42047:1,2013-11-01T00:30:00Z,27.8966,-93.5973,4.0,9.190919432,27.26177153,11.61,'11111222,11111222,11111222' 
TABS,ioos:station:wmo:42047:1,2013-11-01T01:00:00Z,27.8966,-93.5973,4.0,7.554343122,37.41569067,9.99,'11111222,11111222,11111222' 
TABS,ioos:station:wmo:42047:1,2013-11-01T01:30:00Z,27.8966,-93.5973,4.0,7.113845655,44.43016385,8.68,'11111222,11111222,11111222' 
TABS,ioos:station:wmo:42047:1,2013-11-01T02:00:00Z,27.8966,-93.5973,4.0,6.346558122,73.33496227,7.64,'11111222,11111222,11111222' 
TABS,ioos:station:wmo:42047:1,2013-11-01T02:30:00Z,27.8966,-93.5973,4.0,7.386095044,87.67176944,8.23,'11111222,11111222,11111222' 
TABS,ioos:station:wmo:42047:1,2013-11-01T03:00:00Z,27.8966,-93.5973,4.0,6.029038066,93.13807182,7.31,'11111222,11111222,11111222' 
TABS,ioos:station:wmo:42047:1,2013-11-01T03:30:00Z,27.8966,-93.5973,4.0,5.379609651,111.9402222,6.69,'11111222,11111222,11111222' 
TABS,ioos:station:wmo:42047:1,2013-11-01T04:00:00Z,27.8966,-93.5973,4.0,4.709161284,116.6198218,5.93,'11111222,11111222,11111222' 
TABS,ioos:station:wmo:42047:1,2013-11-01T04:30:00Z,27.8966,-93.5973,4.0,3.346460817,97.2103659,4.55,'11111222,11111222,11111222' 
TABS,ioos:station:wmo:42047:1,2013-11-01T05:00:00Z,27.8966,-93.5973,4.0,2.900275849,118.8630769,3.93,'11111222,11111222,11111222' 
TABS,ioos:station:wmo:42047:1,2013-11-01T05:30:00Z,27.8966,-93.5973,4.0,3.070651397,130.6420979,4.06,'11111222,11111222,11111222' 
TABS,ioos:station:wmo:42047:1,2013-11-01T06:00:00Z,27.8966,-93.5973,4.0,1.772004515,106.3899229,2.87,'11111222,11111222,11111222' 
TABS,ioos:station:wmo:42047:1,2013-11-01T06:30:00Z,27.8966,-93.5973,4.0,1.312288078,57.76286791,2.08,'11111222,11111222,11111222' 
TABS,ioos:station:wmo:42047:1,2013-11-01T07:00:00Z,27.8966,-93.5973,4.0,1.542595216,76.50387736,2.42,'11111222,11111222,11111222' 
TABS,ioos:station:wmo:42047:1,2013-11-01T07:30:00Z,27.8966,-93.5973,4.0,1.531012737,33.27459972,2.85,'11111222,11111222,11111222' 
TABS,ioos:station:wmo:42047:1,2013-11-01T08:00:00Z,27.8966,-93.5973,4.0,2.338289973,14.86803613,3.49,'11111222,11111222,11111222' 
TABS,ioos:station:wmo:42047:1,2013-11-01T08:30:00Z,27.8966,-93.5973,4.0,2.281863274,9.58592728,3.65,'11111222,11111222,11111222' 
TABS,ioos:station:wmo:42047:1,2013-11-01T09:00:00Z,27.8966,-93.5973,4.0,3.366556104,3.576115553,4.61,'11111222,11111222,11111222' 
TABS,ioos:station:wmo:42047:1,2013-11-01T09:30:00Z,27.8966,-93.5973,4.0,4.290745856,358.9314631,5.93,'11111222,11111222,11111222' 
TABS,ioos:station:wmo:42047:1,2013-11-01T10:00:00Z,27.8966,-93.5973,4.0,4.763213201,8.57217015,6.09,'11111222,11111222,11111222' 
TABS,ioos:station:wmo:42047:1,2013-11-01T10:30:00Z,27.8966,-93.5973,4.0,5.446365761,10.79390427,7.26,'11111222,11111222,11111222' 
TABS,ioos:station:wmo:42047:1,2013-11-01T11:00:00Z,27.8966,-93.5973,4.0,5.31944546,13.14776677,6.44,'11111222,11111222,11111222' 
TABS,ioos:station:wmo:42047:1,2013-11-01T11:30:00Z,27.8966,-93.5973,4.0,5.087808959,20.35807994,6.11,'11111222,11111222,11111222' 
TABS,ioos:station:wmo:42047:1,2013-11-01T12:00:00Z,27.8966,-93.5973,4.0,5.040486088,37.66532266,6.46,'11111222,11111222,11111222' 
TABS,ioos:station:wmo:42047:1,2013-11-01T12:30:00Z,27.8966,-93.5973,4.0,4.624564844,45.35011203,5.49,'11111222,11111222,11111222' 
TABS,ioos:station:wmo:42047:1,2013-11-01T13:00:00Z,27.8966,-93.5973,4.0,4.737805399,44.48660269,5.7,'11111222,11111222,11111222' 
TABS,ioos:station:wmo:42047:1,2013-11-01T13:30:00Z,27.8966,-93.5973,4.0,4.532162839,38.63976389,5.75,'11111222,11111222,11111222' 
TABS,ioos:station:wmo:42047:1,2013-11-01T14:00:00Z,27.8966,-93.5973,4.0,4.42142511,68.36666592,6.29,'11111222,11111222,11111222' 
TABS,ioos:station:wmo:42047:1,2013-11-01T14:30:00Z,27.8966,-93.5973,4.0,4.604052563,84.14040492,5.7,'11111222,11111222,11111222' 
TABS,ioos:station:wmo:42047:1,2013-11-01T15:00:00Z,27.8966,-93.5973,4.0,4.382168413,83.05296888,5.27,'11111222,11111222,11111222' 
TABS,ioos:station:wmo:42047:1,2013-11-01T15:30:00Z,27.8966,-93.5973,4.0,4.116916322,96.55576288,5.41,'11111222,11111222,11111222' 
TABS,ioos:station:wmo:42047:1,2013-11-01T16:00:00Z,27.8966,-93.5973,4.0,3.741724201,99.53824246,4.84,'11111222,11111222,11111222' 
TABS,ioos:station:wmo:42047:1,2013-11-01T16:30:00Z,27.8966,-93.5973,4.0,2.28162223,95.78596225,3.32,'11111222,11111222,11111222' 
TABS,ioos:station:wmo:42047:1,2013-11-01T17:00:00Z,27.8966,-93.5973,4.0,2.292640399,87.24950034,3.29,'11111222,11111222,11111222' 
TABS,ioos:station:wmo:42047:1,2013-11-01T17:30:00Z,27.8966,-93.5973,4.0,1.857794391,95.25068137,2.72,'11111222,11111222,11111222' 
TABS,ioos:station:wmo:42047:1,2013-11-01T18:00:00Z,27.8966,-93.5973,4.0,2.088492279,63.55727859,2.98,'11111222,11111222,11111222' 
TABS,ioos:station:wmo:42047:1,2013-11-01T18:30:00Z,27.8966,-93.5973,4.0,2.823473039,87.15744785,3.98,'11111222,11111222,11111222' 
TABS,ioos:station:wmo:42047:1,2013-11-01T19:00:00Z,27.8966,-93.5973,4.0,2.917704577,67.21360559,3.97,'11111222,11111222,11111222' 
TABS,ioos:station:wmo:42047:1,2013-11-01T19:30:00Z,27.8966,-93.5973,4.0,2.915561695,93.53997181,3.85,'11111222,11111222,11111222' 
TABS,ioos:station:wmo:42047:1,2013-11-01T20:00:00Z,27.8966,-93.5973,4.0,2.175890622,76.98525598,3.06,'11111222,11111222,11111222' 
TABS,ioos:station:wmo:42047:1,2013-11-01T20:30:00Z,27.8966,-93.5973,4.0,2.154738963,69.63031341,3.0,'11111222,11111222,11111222' 
TABS,ioos:station:wmo:42047:1,2013-11-01T21:00:00Z,27.8966,-93.5973,4.0,1.665953181,82.06404727,2.69,'11111222,11111222,11111222' 
TABS,ioos:station:wmo:42047:1,2013-11-01T21:30:00Z,27.8966,-93.5973,4.0,1.739540169,72.60629761,2.48,'11111222,11111222,11111222' 
TABS,ioos:station:wmo:42047:1,2013-11-02T00:00:00Z,27.8966,-93.5973,4.0,2.30893915,104.0366316,3.37,'11111222,11111222,11111222' 
TABS,ioos:station:wmo:42047:1,2013-11-02T00:30:00Z,27.8966,-93.5973,4.0,2.286328935,108.3560796,3.23,'11111222,11111222,11111222' 
TABS,ioos:station:wmo:42047:1,2013-11-02T01:00:00Z,27.8966,-93.5973,4.0,2.314238536,93.46864207,3.38,'11111222,11111222,11111222' 
TABS,ioos:station:wmo:42047:1,2013-11-02T01:30:00Z,27.8966,-93.5973,4.0,3.041331945,88.30382173,4.05,'11111222,11111222,11111222' 
TABS,ioos:station:wmo:42047:1,2013-11-02T02:00:00Z,27.8966,-93.5973,4.0,3.1503968,107.1699659,3.89,'11111222,11111222,11111222' 
TABS,ioos:station:wmo:42047:1,2013-11-02T02:30:00Z,27.8966,-93.5973,4.0,3.311223339,111.0627291,4.23,'11111222,11111222,11111222' 
TABS,ioos:station:wmo:42047:1,2013-11-02T03:00:00Z,27.8966,-93.5973,4.0,3.690867107,107.5025751,5.07,'11111222,11111222,11111222' 
TABS,ioos:station:wmo:42047:1,2013-11-02T03:30:00Z,27.8966,-93.5973,4.0,3.186989175,101.7686823,4.04,'11111222,11111222,11111222' 
TABS,ioos:station:wmo:42047:1,2013-11-02T04:00:00Z,27.8966,-93.5973,4.0,3.633249235,113.1782504,4.41,'11111222,11111222,11111222' 
TABS,ioos:station:wmo:42047:1,2013-11-02T04:30:00Z,27.8966,-93.5973,4.0,3.564519603,124.7158253,4.56,'11111222,11111222,11111222' 
TABS,ioos:station:wmo:42047:1,2013-11-02T05:00:00Z,27.8966,-93.5973,4.0,2.571944789,138.6257719,3.54,'11111222,11111222,11111222' 
TABS,ioos:station:wmo:42047:1,2013-11-02T05:30:00Z,27.8966,-93.5973,4.0,2.348275963,133.6199648,3.25,'11111222,11111222,11111222' 
TABS,ioos:station:wmo:42047:1,2013-11-02T06:00:00Z,27.8966,-93.5973,4.0,3.095173662,165.0211315,3.95,'11111222,11111222,11111222' 
TABS,ioos:station:wmo:42047:1,2013-11-02T06:30:00Z,27.8966,-93.5973,4.0,1.325179233,188.6806086,2.22,'11111222,11111222,11111222' 
TABS,ioos:station:wmo:42047:1,2013-11-02T07:00:00Z,27.8966,-93.5973,4.0,2.597883754,291.9242225,3.71,'11111222,11111222,11111222' 
TABS,ioos:station:wmo:42047:1,2013-11-02T07:30:00Z,27.8966,-93.5973,4.0,1.17,247.3801879,1.75,'11111222,11111222,11111222' 
TABS,ioos:station:wmo:42047:1,2013-11-02T08:00:00Z,27.8966,-93.5973,4.0,0.73593478,222.7975122,1.3,'11111222,11111222,11111222' 
TABS,ioos:station:wmo:42047:1,2013-11-02T08:30:00Z,27.8966,-93.5973,4.0,2.643274484,295.7894608,3.43,'11111222,11111222,11111222' 
TABS,ioos:station:wmo:42047:1,2013-11-02T09:00:00Z,27.8966,-93.5973,4.0,10.8204621,298.6019408,13.64,'11111222,11111222,11111222' 
TABS,ioos:station:wmo:42047:1,2013-11-02T09:30:00Z,27.8966,-93.5973,4.0,10.88673505,298.4717847,12.92,'11111222,11111222,11111222' 
TABS,ioos:station:wmo:42047:1,2013-11-02T10:00:00Z,27.8966,-93.5973,4.0,10.8116835,315.1123125,13.0,'11111222,11111222,11111222' 
TABS,ioos:station:wmo:42047:1,2013-11-02T10:30:00Z,27.8966,-93.5973,4.0,9.019650769,326.7150215,10.63,'11111222,11111222,11111222' 
TABS,ioos:station:wmo:42047:1,2013-11-02T11:00:00Z,27.8966,-93.5973,4.0,8.929378478,329.9605035,10.7,'11111222,11111222,11111222' 
TABS,ioos:station:wmo:42047:1,2013-11-02T11:30:00Z,27.8966,-93.5973,4.0,8.925161063,331.0512524,11.2,'11111222,11111222,11111222' 
TABS,ioos:station:wmo:42047:1,2013-11-02T12:00:00Z,27.8966,-93.5973,4.0,9.086346901,327.8140125,11.19,'11111222,11111222,11111222' 
TABS,ioos:station:wmo:42047:1,2013-11-02T12:30:00Z,27.8966,-93.5973,4.0,8.39135865,332.3049156,11.03,'11111222,11111222,11111222' 
TABS,ioos:station:wmo:42047:1,2013-11-02T13:00:00Z,27.8966,-93.5973,4.0,9.154741941,333.8826323,10.81,'11111222,11111222,11111222' 
TABS,ioos:station:wmo:42047:1,2013-11-02T13:30:00Z,27.8966,-93.5973,4.0,9.6292575,339.0050474,11.4,'11111222,11111222,11111222' 
TABS,ioos:station:wmo:42047:1,2013-11-02T14:00:00Z,27.8966,-93.5973,4.0,10.33535679,348.8420917,13.49,'11111222,11111222,11111222' 
TABS,ioos:station:wmo:42047:1,2013-11-02T14:30:00Z,27.8966,-93.5973,4.0,11.85185639,357.4367461,14.57,'11111222,11111222,11111222' 
TABS,ioos:station:wmo:42047:1,2013-11-02T15:00:00Z,27.8966,-93.5973,4.0,12.60244817,344.7726186,14.71,'11111222,11111222,11111222' 
TABS,ioos:station:wmo:42047:1,2013-11-02T15:30:00Z,27.8966,-93.5973,4.0,11.81577336,351.9725708,14.22,'11111222,11111222,11111222' 
TABS,ioos:station:wmo:42047:1,2013-11-02T16:00:00Z,27.8966,-93.5973,4.0,11.551264,2.530272869,13.24,'11111222,11111222,11111222' 
TABS,ioos:station:wmo:42047:1,2013-11-02T16:30:00Z,27.8966,-93.5973,4.0,11.41907177,5.830192738,14.42,'11111222,11111222,11111222' 
TABS,ioos:station:wmo:42047:1,2013-11-02T17:00:00Z,27.8966,-93.5973,4.0,11.77801341,9.973929903,13.55,'11111222,11111222,11111222' 
TABS,ioos:station:wmo:42047:1,2013-11-02T17:30:00Z,27.8966,-93.5973,4.0,10.87209731,6.601854332,12.67,'11111222,11111222,11111222' 
TABS,ioos:station:wmo:42047:1,2013-11-02T18:00:00Z,27.8966,-93.5973,4.0,11.21927805,355.8596047,13.1,'11111222,11111222,11111222' 
TABS,ioos:station:wmo:42047:1,2013-11-02T18:30:00Z,27.8966,-93.5973,4.0,10.13059722,0.621929058,12.19,'11111222,11111222,11111222' 
TABS,ioos:station:wmo:42047:1,2013-11-02T19:00:00Z,27.8966,-93.5973,4.0,10.50305194,5.189267448,12.08,'11111222,11111222,11111222' 
TABS,ioos:station:wmo:42047:1,2013-11-02T19:30:00Z,27.8966,-93.5973,4.0,10.59306377,8.741819126,13.37,'11111222,11111222,11111222' 
TABS,ioos:station:wmo:42047:1,2013-11-02T20:00:00Z,27.8966,-93.5973,4.0,10.85552855,9.062944225,13.73,'11111222,11111222,11111222' 
TABS,ioos:station:wmo:42047:1,2013-11-02T20:30:00Z,27.8966,-93.5973,4.0,10.89515948,3.894312077,12.96,'11111222,11111222,11111222' 
TABS,ioos:station:wmo:42047:1,2013-11-02T21:00:00Z,27.8966,-93.5973,4.0,11.62232335,3.551514591,15.48,'11111222,11111222,11111222' 
TABS,ioos:station:wmo:42047:1,2013-11-02T21:30:00Z,27.8966,-93.5973,4.0,11.14896408,3.342100063,13.79,'11111222,11111222,11111222' 
TABS,ioos:station:wmo:42047:1,2013-11-02T22:00:00Z,27.8966,-93.5973,4.0,11.17656924,8.282119591,13.18,'11111222,11111222,11111222' 
TABS,ioos:station:wmo:42047:1,2013-11-02T22:30:00Z,27.8966,-93.5973,4.0,11.39979386,14.63331613,14.09,'11111222,11111222,11111222' 
TABS,ioos:station:wmo:42047:1,2013-11-02T23:00:00Z,27.8966,-93.5973,4.0,10.7857035,14.33233212,12.81,'11111222,11111222,11111222' 
TABS,ioos:station:wmo:42047:1,2013-11-02T23:30:00Z,27.8966,-93.5973,4.0,9.905200654,7.949904286,12.01,'11111222,11111222,11111222' 
TABS,ioos:station:wmo:42047:1,2013-11-03T00:00:00Z,27.8966,-93.5973,4.0,9.769114597,15.80013699,12.22,'11111222,11111222,11111222' 
TABS,ioos:station:wmo:42047:1,2013-11-03T00:30:00Z,27.8966,-93.5973,4.0,9.446120897,16.86166698,11.43,'11111222,11111222,11111222' 
TABS,ioos:station:wmo:42047:1,2013-11-03T01:00:00Z,27.8966,-93.5973,4.0,8.528645848,12.39012014,10.47,'11111222,11111222,11111222' 
TABS,ioos:station:wmo:42047:1,2013-11-03T01:30:00Z,27.8966,-93.5973,4.0,8.954222468,17.2812475,11.11,'11111222,11111222,11111222' 
TABS,ioos:station:wmo:42047:1,2013-11-03T02:00:00Z,27.8966,-93.5973,4.0,8.702195125,15.39346286,10.47,'11111222,11111222,11111222' 
TABS,ioos:station:wmo:42047:1,2013-11-03T02:30:00Z,27.8966,-93.5973,4.0,8.648404477,16.3182562,11.04,'11111222,11111222,11111222' 
TABS,ioos:station:wmo:42047:1,2013-11-03T03:00:00Z,27.8966,-93.5973,4.0,8.170905703,4.984705153,10.31,'11111222,11111222,11111222' 
TABS,ioos:station:wmo:42047:1,2013-11-03T03:30:00Z,27.8966,-93.5973,4.0,9.216355028,14.06615579,11.54,'11111222,11111222,11111222' 
TABS,ioos:station:wmo:42047:1,2013-11-03T04:00:00Z,27.8966,-93.5973,4.0,8.816223681,8.019583038,10.46,'11111222,11111222,11111222' 
TABS,ioos:station:wmo:42047:1,2013-11-03T04:30:00Z,27.8966,-93.5973,4.0,7.32216498,14.14987015,9.35,'11111222,11111222,11111222' 
TABS,ioos:station:wmo:42047:1,2013-11-03T05:00:00Z,27.8966,-93.5973,4.0,7.742764364,14.96930534,10.52,'11111222,11111222,11111222' 
TABS,ioos:station:wmo:42047:1,2013-11-03T05:30:00Z,27.8966,-93.5973,4.0,8.017443483,11.73015509,9.9,'11111222,11111222,11111222' 
TABS,ioos:station:wmo:42047:1,2013-11-03T06:00:00Z,27.8966,-93.5973,4.0,6.925113717,23.30696361,9.92,'11111222,11111222,11111222' 
TABS,ioos:station:wmo:42047:1,2013-11-03T06:30:00Z,27.8966,-93.5973,4.0,6.972001147,36.83672912,8.74,'11111222,11111222,11111222' 
TABS,ioos:station:wmo:42047:1,2013-11-03T07:00:00Z,27.8966,-93.5973,4.0,7.51651515,15.58914909,9.29,'11111222,11111222,11111222' 
TABS,ioos:station:wmo:42047:1,2013-11-03T07:30:00Z,27.8966,-93.5973,4.0,6.803624034,34.15691547,9.77,'11111222,11111222,11111222' 
TABS,ioos:station:wmo:42047:1,2013-11-03T08:00:00Z,27.8966,-93.5973,4.0,7.081560562,22.76274705,9.27,'11111222,11111222,11111222' 
TABS,ioos:station:wmo:42047:1,2013-11-03T08:30:00Z,27.8966,-93.5973,4.0,6.666580833,52.37343343,8.69,'11111222,11111222,11111222' 
TABS,ioos:station:wmo:42047:1,2013-11-03T09:00:00Z,27.8966,-93.5973,4.0,6.85519511,50.50444053,8.96,'11111222,11111222,11111222' 
TABS,ioos:station:wmo:42047:1,2013-11-03T09:30:00Z,27.8966,-93.5973,4.0,6.584010936,53.02534071,8.76,'11111222,11111222,11111222' 
TABS,ioos:station:wmo:42047:1,2013-11-03T10:00:00Z,27.8966,-93.5973,4.0,5.948108943,63.00380382,9.06,'11111222,11111222,11111222' 
TABS,ioos:station:wmo:42047:1,2013-11-03T10:30:00Z,27.8966,-93.5973,4.0,5.884250165,60.47216124,7.92,'11111222,11111222,11111222' 
TABS,ioos:station:wmo:42047:1,2013-11-03T11:00:00Z,27.8966,-93.5973,4.0,5.641498028,56.78845135,7.29,'11111222,11111222,11111222' 
TABS,ioos:station:wmo:42047:1,2013-11-03T11:30:00Z,27.8966,-93.5973,4.0,5.45241231,65.97312869,7.19,'11111222,11111222,11111222' 
TABS,ioos:station:wmo:42047:1,2013-11-03T12:00:00Z,27.8966,-93.5973,4.0,6.316335963,76.82141879,8.64,'11111222,11111222,11111222' 
TABS,ioos:station:wmo:42047:1,2013-11-03T12:30:00Z,27.8966,-93.5973,4.0,6.930526676,74.86050834,8.79,'11111222,11111222,11111222' 
TABS,ioos:station:wmo:42047:1,2013-11-03T13:00:00Z,27.8966,-93.5973,4.0,5.88524426,72.0880473,8.43,'11111222,11111222,11111222' 
TABS,ioos:station:wmo:42047:1,2013-11-03T13:30:00Z,27.8966,-93.5973,4.0,6.345652055,84.84603523,8.28,'11111222,11111222,11111222' 
TABS,ioos:station:wmo:42047:1,2013-11-03T14:00:00Z,27.8966,-93.5973,4.0,6.764355106,78.14148558,9.65,'11111222,11111222,11111222' 
TABS,ioos:station:wmo:42047:1,2013-11-03T14:30:00Z,27.8966,-93.5973,4.0,6.383181025,84.15502687,8.47,'11111222,11111222,11111222' 
TABS,ioos:station:wmo:42047:1,2013-11-03T15:00:00Z,27.8966,-93.5973,4.0,5.648681262,82.47198157,8.11,'11111222,11111222,11111222' 
TABS,ioos:station:wmo:42047:1,2013-11-03T15:30:00Z,27.8966,-93.5973,4.0,5.213098886,78.0430228,7.5,'11111222,11111222,11111222' 
TABS,ioos:station:wmo:42047:1,2013-11-03T16:00:00Z,27.8966,-93.5973,4.0,5.898177685,70.79668122,8.0,'11111222,11111222,11111222' 
TABS,ioos:station:wmo:42047:1,2013-11-03T16:30:00Z,27.8966,-93.5973,4.0,6.676833082,81.29910676,9.22,'11111222,11111222,11111222' 
TABS,ioos:station:wmo:42047:1,2013-11-03T17:00:00Z,27.8966,-93.5973,4.0,6.763970727,83.46296072,8.72,'11111222,11111222,11111222' 
TABS,ioos:station:wmo:42047:1,2013-11-03T17:30:00Z,27.8966,-93.5973,4.0,6.795388142,67.32139476,8.7,'11111222,11111222,11111222' 
TABS,ioos:station:wmo:42047:1,2013-11-03T18:00:00Z,27.8966,-93.5973,4.0,6.325385364,75.72170879,8.72,'11111222,11111222,11111222' 
TABS,ioos:station:wmo:42047:1,2013-11-03T18:30:00Z,27.8966,-93.5973,4.0,6.721443297,82.9062987,8.6,'11111222,11111222,11111222' 
TABS,ioos:station:wmo:42047:1,2013-11-03T19:00:00Z,27.8966,-93.5973,4.0,6.491625374,84.34169301,8.29,'11111222,11111222,11111222' 
TABS,ioos:station:wmo:42047:1,2013-11-03T19:30:00Z,27.8966,-93.5973,4.0,6.250072,89.7245621,7.85,'11111222,11111222,11111222' 
TABS,ioos:station:wmo:42047:1,2013-11-03T20:00:00Z,27.8966,-93.5973,4.0,5.744049094,82.89932379,7.6,'11111222,11111222,11111222' 
TABS,ioos:station:wmo:42047:1,2013-11-03T20:30:00Z,27.8966,-93.5973,4.0,5.333104162,80.50195493,6.83,'11111222,11111222,11111222' 
TABS,ioos:station:wmo:42047:1,2013-11-03T21:00:00Z,27.8966,-93.5973,4.0,4.86507965,81.36983708,6.44,'11111222,11111222,11111222' 
TABS,ioos:station:wmo:42047:1,2013-11-03T21:30:00Z,27.8966,-93.5973,4.0,4.489509996,77.91376374,6.21,'11111222,11111222,11111222' 
TABS,ioos:station:wmo:42047:1,2013-11-03T22:00:00Z,27.8966,-93.5973,4.0,4.60001087,77.4437808,6.3,'11111222,11111222,11111222' 
TABS,ioos:station:wmo:42047:1,2013-11-03T22:30:00Z,27.8966,-93.5973,4.0,5.05328606,82.49486418,6.45,'11111222,11111222,11111222' 
TABS,ioos:station:wmo:42047:1,2013-11-03T23:00:00Z,27.8966,-93.5973,4.0,4.877796634,96.12008139,6.72,'11111222,11111222,11111222' 
TABS,ioos:station:wmo:42047:1,2013-11-03T23:30:00Z,27.8966,-93.5973,4.0,6.080666082,93.3945394,7.57,'11111222,11111222,11111222' 
TABS,ioos:station:wmo:42047:1,2013-11-04T00:00:00Z,27.8966,-93.5973,4.0,5.890543269,90.77858218,7.67,'11111222,11111222,11111222' 
TABS,ioos:station:wmo:42047:1,2013-11-04T00:30:00Z,27.8966,-93.5973,4.0,5.938097338,92.99291614,7.92,'11111222,11111222,11111222' 
TABS,ioos:station:wmo:42047:1,2013-11-04T01:00:00Z,27.8966,-93.5973,4.0,5.327382096,85.36992096,6.66,'11111222,11111222,11111222' 
TABS,ioos:station:wmo:42047:1,2013-11-04T01:30:00Z,27.8966,-93.5973,4.0,5.925141349,97.07744436,7.28,'11111222,11111222,11111222' 
TABS,ioos:station:wmo:42047:1,2013-11-04T02:00:00Z,27.8966,-93.5973,4.0,6.105481144,100.6661692,8.62,'11111222,11111222,11111222' 
TABS,ioos:station:wmo:42047:1,2013-11-04T02:30:00Z,27.8966,-93.5973,4.0,5.659717307,98.33093798,7.01,'11111222,11111222,11111222' 
TABS,ioos:station:wmo:42047:1,2013-11-04T03:00:00Z,27.8966,-93.5973,4.0,5.439420925,93.37305914,6.51,'11111222,11111222,11111222' 
TABS,ioos:station:wmo:42047:1,2013-11-04T03:30:00Z,27.8966,-93.5973,4.0,6.158027282,103.8109705,7.39,'11111222,11111222,11111222' 
TABS,ioos:station:wmo:42047:1,2013-11-04T04:00:00Z,27.8966,-93.5973,4.0,7.036277425,99.48949466,8.67,'11111222,11111222,11111222' 
TABS,ioos:station:wmo:42047:1,2013-11-04T04:30:00Z,27.8966,-93.5973,4.0,6.714499237,114.084151,7.92,'11111222,11111222,11111222' 
TABS,ioos:station:wmo:42047:1,2013-11-04T05:00:00Z,27.8966,-93.5973,4.0,7.017613554,109.1324452,8.53,'11111222,11111222,11111222' 
TABS,ioos:station:wmo:42047:1,2013-11-04T05:30:00Z,27.8966,-93.5973,4.0,6.917224877,113.1554525,9.33,'11111222,11111222,11111222' 
TABS,ioos:station:wmo:42047:1,2013-11-04T06:00:00Z,27.8966,-93.5973,4.0,6.918417449,116.7135561,8.44,'11111222,11111222,11111222' 
TABS,ioos:station:wmo:42047:1,2013-11-04T06:30:00Z,27.8966,-93.5973,4.0,6.971319818,118.4402719,8.88,'11111222,11111222,11111222' 
TABS,ioos:station:wmo:42047:1,2013-11-04T07:00:00Z,27.8966,-93.5973,4.0,7.707165497,121.0915985,9.73,'11111222,11111222,11111222' 
TABS,ioos:station:wmo:42047:1,2013-11-04T07:30:00Z,27.8966,-93.5973,4.0,8.398345075,118.3657991,10.32,'11111222,11111222,11111222' 
TABS,ioos:station:wmo:42047:1,2013-11-04T08:00:00Z,27.8966,-93.5973,4.0,8.723497005,120.0629502,10.69,'11111222,11111222,11111222' 
TABS,ioos:station:wmo:42047:1,2013-11-04T08:30:00Z,27.8966,-93.5973,4.0,8.567671796,118.2105246,10.25,'11111222,11111222,11111222' 
TABS,ioos:station:wmo:42047:1,2013-11-04T09:00:00Z,27.8966,-93.5973,4.0,8.183507805,114.7803935,9.98,'11111222,11111222,11111222' 
TABS,ioos:station:wmo:42047:1,2013-11-04T09:30:00Z,27.8966,-93.5973,4.0,7.373608343,125.6735088,8.59,'11111222,11111222,11111222' 
TABS,ioos:station:wmo:42047:1,2013-11-04T10:00:00Z,27.8966,-93.5973,4.0,8.421080691,119.2135605,10.3,'11111222,11111222,11111222' 
TABS,ioos:station:wmo:42047:1,2013-11-04T10:30:00Z,27.8966,-93.5973,4.0,8.051366344,115.4514684,10.12,'11111222,11111222,11111222' 
TABS,ioos:station:wmo:42047:1,2013-11-04T11:00:00Z,27.8966,-93.5973,4.0,7.662023231,117.6021707,9.34,'11111222,11111222,11111222' 
TABS,ioos:station:wmo:42047:1,2013-11-04T11:30:00Z,27.8966,-93.5973,4.0,8.3775235,118.6763131,9.6,'11111222,11111222,11111222' 
TABS,ioos:station:wmo:42047:1,2013-11-04T12:00:00Z,27.8966,-93.5973,4.0,8.804118354,118.0498734,10.13,'11111222,11111222,11111222' 
TABS,ioos:station:wmo:42047:1,2013-11-04T12:30:00Z,27.8966,-93.5973,4.0,8.642250864,123.8191224,10.43,'11111222,11111222,11111222' 
TABS,ioos:station:wmo:42047:1,2013-11-04T13:00:00Z,27.8966,-93.5973,4.0,9.444670455,122.8995949,11.08,'11111222,11111222,11111222' 
TABS,ioos:station:wmo:42047:1,2013-11-04T13:30:00Z,27.8966,-93.5973,4.0,9.094245433,118.7918261,11.02,'11111222,11111222,11111222' 
TABS,ioos:station:wmo:42047:1,2013-11-04T14:00:00Z,27.8966,-93.5973,4.0,8.750131428,115.159664,10.63,'11111222,11111222,11111222' 
TABS,ioos:station:wmo:42047:1,2013-11-04T14:30:00Z,27.8966,-93.5973,4.0,8.875883055,118.0956253,10.77,'11111222,11111222,11111222' 
TABS,ioos:station:wmo:42047:1,2013-11-04T15:00:00Z,27.8966,-93.5973,4.0,9.378752582,119.1617632,10.89,'11111222,11111222,11111222' 
TABS,ioos:station:wmo:42047:1,2013-11-04T15:30:00Z,27.8966,-93.5973,4.0,9.894690495,118.6893768,11.94,'11111222,11111222,11111222' 
TABS,ioos:station:wmo:42047:1,2013-11-04T16:00:00Z,27.8966,-93.5973,4.0,10.32601569,124.1059228,12.48,'11111222,11111222,11111222' 
TABS,ioos:station:wmo:42047:1,2013-11-04T16:30:00Z,27.8966,-93.5973,4.0,9.83292937,128.2688309,11.46,'11111222,11111222,11111222' 
TABS,ioos:station:wmo:42047:1,2013-11-04T17:00:00Z,27.8966,-93.5973,4.0,10.75548697,120.2606219,12.63,'11111222,11111222,11111222' 
TABS,ioos:station:wmo:42047:1,2013-11-04T17:30:00Z,27.8966,-93.5973,4.0,10.64706532,121.4809332,12.6,'11111222,11111222,11111222' 
TABS,ioos:station:wmo:42047:1,2013-11-04T18:00:00Z,27.8966,-93.5973,4.0,10.71619802,119.0289915,12.46,'11111222,11111222,11111222' 
TABS,ioos:station:wmo:42047:1,2013-11-04T18:30:00Z,27.8966,-93.5973,4.0,10.64452911,121.8687951,12.45,'11111222,11111222,11111222' 
TABS,ioos:station:wmo:42047:1,2013-11-04T19:00:00Z,27.8966,-93.5973,4.0,10.10630002,122.4324039,11.87,'11111222,11111222,11111222' 
TABS,ioos:station:wmo:42047:1,2013-11-04T19:30:00Z,27.8966,-93.5973,4.0,10.46148173,120.7574659,12.02,'11111222,11111222,11111222' 
TABS,ioos:station:wmo:42047:1,2013-11-04T20:00:00Z,27.8966,-93.5973,4.0,10.57878065,125.1476557,12.81,'11111222,11111222,11111222' 
TABS,ioos:station:wmo:42047:1,2013-11-04T20:30:00Z,27.8966,-93.5973,4.0,11.19823647,125.2941552,13.01,'11111222,11111222,11111222' 